COSMOS 1275 DEB, 17624

Orbit data source: Space-Track

COSMOS 1275 DEB, 17624 is space debris in LEO originally from a launch on Thu, 04 Jun 1981 UTC launched from the Plesetsk Missile And Space Complex (PKMTR). Debris objects in space refer to the collection of defunct objects orbiting the Earth. Examples of debris include non-operational satellites, rocket bodies, and fragments generated from explosions, collisions, or faulty payload assembly.

Loading next visibility...
Identifier
17624, 1981-053KT
Orbit
LEO
Country
Flag of CISCIS
Related business
Manufacturer
Unknown
Mission
Spacecraft
Bus & Motor
Unknown
Mass
Unknown
Launch date (UTC)
1981-06-04 (45 years ago)
Launch vehicle
Unknown
Launch site
Plesetsk Missile And Space Complex (PKMTR)
Object type
Payload
Rocket body
Debris
Shape & HBR
Unknown shape, 0.1 m
Radar Cross Section
Small (<0.1 m²)

Expand to show TLE details & history
Last TLE update: 1 day ago

TLE from 1 day ago
0 COSMOS 1275 DEB
1 17624U 81053KT  26035.39600116  .00007819  00000-0  21139-2 0  9992
2 17624  82.8424 188.2321 0012927 228.0850 161.5430 14.47650176104760
Epoch: 2026-02-04T09:30Z
TLE epoch observation values (Epoch: 2026-02-04T09:30:14.500Z)
Latitude
29.47005°
Longitude
-84.84406°
Altitude
745.796 km
Speed
7.48 km/s
True Right ascension
12h 49m 07s
True Declination
29° 19' 22"
Sunlit
Object was in full shadow at epoch
Visualization orbit readout
Latitude
Unknown
Longitude
Unknown
Altitude
Unknown
Speed
Unknown
Apparent Right ascension
Unknown
Apparent Declination
Unknown
Sunlit
N/A
Visualization observer readout
Local Sidereal Time
19:56:51
Azimuth
Unknown
Elevation
Unknown
Doppler factor
Unknown
Orbital elements
Apogee altitude
739.576 km
Perigee altitude
721.197 km
Semi-major axis
7,108.524 km
Eccentricity
0.00129
Inclination
82.8424°
RAAN
188.2321°
Arg. of periapsis
228.085°
True anomaly
161.58983°
Mean anomaly
161.543°
Eccentric anomaly
161.56642°
Mean motion
3.62138 °/min
Orbital period
99.41 mins
BSTAR
0.0021139
Loading maneuver chart data...
Computing Atmospheric mass density...

Documentation

Showing up to 5 results
|